Location: Unspecified
(0.0000°N, 0.0000°E)
Time: 14:22:37
(UTC+02:00)

Cosmos 1538 Rocket - Visible Passes

Search period start: 05 May 2016 00:00
Search period end: 15 May 2016 00:00
Orbit: 753 x 791 km, 74.0° (Epoch: 04 May)

Date Brightness Start Highest point End Pass type
(mag) Time Alt. Az. Time Alt. Az. Time Alt. Az.
05 May 6.6 21:52:37 10° WSW 21:56:18 19° WNW 21:59:57 10° NNW visible
06 May 5.6 21:15:45 10° SW 21:20:37 37° WNW 21:25:27 10° NNW visible
07 May 4.3 20:39:39 10° SSW 20:44:58 75° WNW 20:50:12 10° N visible
08 May 7.2 07:32:27 10° NE 07:36:00 19° ENE 07:39:33 10° ESE visible
09 May 7.1 21:12:06 10° WSW 21:15:27 17° WNW 21:18:47 10° NW visible
10 May 6.0 20:35:03 10° SW 20:39:47 33° WNW 20:44:27 10° NNW visible
11 May 5.6 07:25:56 10° N 07:30:48 40° ENE 07:35:44 10° SSE visible
12 May 6.8 06:51:18 10° NNE 06:55:08 21° ENE 06:59:00 10° SE visible
13 May 7.3 20:31:39 10° WSW 20:34:36 15° WNW 20:37:33 10° NW visible
14 May 4.1 07:20:24 10° NNW 07:25:36 89° W 07:30:56 10° SSE visible
